DENIZ EDDG-EDLW

Flight info

Callsign DENIZ
Flight time 0h 27m
Altitude
Route
Aircraft C172

Departure

Time 2026-04-15 15:29
Airport Münster Osnabrück Airport (EDDG)

Arrival

Time 2026-04-15 15:56
Airport Dortmund Airport (EDLW)
Time Latitude Longitude Altitude Speed Heading
2026-04-15 15:25 52.13379 7.68907 162 ft 26 kts 71°
2026-04-15 15:25 52.13435 7.69167 162 ft 19 kts 71°
2026-04-15 15:25 52.13485 7.69410 162 ft 26 kts 70°
2026-04-15 15:26 52.13546 7.69697 162 ft 23 kts 72°
2026-04-15 15:26 52.13602 7.69951 162 ft 16 kts 69°
2026-04-15 15:26 52.13674 7.70038 162 ft 16 kts
2026-04-15 15:26 52.13705 7.70032 162 ft 0 kts 348°
2026-04-15 15:28 52.13719 7.70025 162 ft 9 kts 341°
2026-04-15 15:28 52.13763 7.69892 162 ft 19 kts 248°
2026-04-15 15:28 52.13654 7.69392 180 ft 69 kts 244°
2026-04-15 15:28 52.13486 7.68574 410 ft 76 kts 246°
2026-04-15 15:29 52.13320 7.67783 736 ft 72 kts 247°
2026-04-15 15:29 52.13179 7.67016 1017 ft 72 kts 245°
2026-04-15 15:29 52.12939 7.66330 1333 ft 70 kts 211°
2026-04-15 15:29 52.12457 7.66030 1536 ft 82 kts 197°
2026-04-15 15:30 52.11868 7.65721 1614 ft 93 kts 199°
2026-04-15 15:30 52.11241 7.65363 1642 ft 101 kts 198°
2026-04-15 15:30 52.10551 7.64977 1578 ft 108 kts 198°
2026-04-15 15:30 52.09827 7.64567 1510 ft 116 kts 199°
2026-04-15 15:31 52.09072 7.64148 1484 ft 112 kts 198°
2026-04-15 15:31 52.08337 7.63722 1492 ft 111 kts 199°
2026-04-15 15:31 52.07609 7.63312 1490 ft 111 kts 199°
2026-04-15 15:31 52.06880 7.62897 1494 ft 111 kts 198°
2026-04-15 15:32 52.06143 7.62484 1487 ft 112 kts 199°
2026-04-15 15:32 52.05410 7.62083 1492 ft 110 kts 199°
2026-04-15 15:32 52.04678 7.61681 1496 ft 112 kts 198°
2026-04-15 15:32 52.03943 7.61269 1493 ft 112 kts 198°
2026-04-15 15:33 52.03210 7.60860 1492 ft 113 kts 198°
2026-04-15 15:33 52.02441 7.60634 1485 ft 112 kts 188°
2026-04-15 15:33 52.01663 7.60456 1492 ft 113 kts 188°
2026-04-15 15:33 52.00885 7.60283 1491 ft 113 kts 188°
2026-04-15 15:34 52.00104 7.60103 1496 ft 113 kts 188°
2026-04-15 15:34 51.99320 7.59930 1494 ft 114 kts 188°
2026-04-15 15:34 51.98535 7.59823 1495 ft 112 kts 183°
2026-04-15 15:34 51.97750 7.59770 1492 ft 114 kts 183°
2026-04-15 15:35 51.97224 7.59742 1497 ft 115 kts 184°
2026-04-15 15:35 51.96421 7.59681 1493 ft 116 kts 184°
2026-04-15 15:35 51.95622 7.59627 1485 ft 114 kts 184°
2026-04-15 15:35 51.94841 7.59563 1492 ft 111 kts 183°
2026-04-15 15:36 51.93810 7.59485 1484 ft 112 kts 184°
2026-04-15 15:36 51.93284 7.59449 1483 ft 112 kts 184°
2026-04-15 15:36 51.92499 7.59404 1484 ft 114 kts 183°
2026-04-15 15:36 51.91706 7.59354 1488 ft 116 kts 183°
2026-04-15 15:37 51.90908 7.59310 1492 ft 114 kts 183°
2026-04-15 15:37 51.90110 7.59249 1487 ft 115 kts 184°
2026-04-15 15:37 51.89312 7.59198 1491 ft 114 kts 184°
2026-04-15 15:37 51.88522 7.59145 1490 ft 115 kts 184°
2026-04-15 15:38 51.87740 7.59101 1503 ft 112 kts 183°
2026-04-15 15:38 51.86953 7.59047 1502 ft 114 kts 183°
2026-04-15 15:38 51.86151 7.58981 1497 ft 117 kts 184°
2026-04-15 15:38 51.85341 7.58912 1497 ft 117 kts 184°
2026-04-15 15:39 51.84538 7.58856 1490 ft 114 kts 184°
2026-04-15 15:39 51.83749 7.58806 1487 ft 113 kts 184°
2026-04-15 15:39 51.82973 7.58762 1484 ft 110 kts 183°
2026-04-15 15:39 51.82195 7.58731 1486 ft 114 kts 179°
2026-04-15 15:40 51.81413 7.58815 1493 ft 111 kts 179°
2026-04-15 15:40 51.80643 7.58883 1493 ft 110 kts 178°
2026-04-15 15:40 51.79883 7.58954 1488 ft 111 kts 179°
2026-04-15 15:40 51.79108 7.59044 1496 ft 113 kts 179°
2026-04-15 15:41 51.78326 7.59126 1493 ft 112 kts 178°
2026-04-15 15:41 51.77542 7.59191 1492 ft 113 kts 179°
2026-04-15 15:41 51.76746 7.59261 1504 ft 117 kts 178°
2026-04-15 15:41 51.75922 7.59305 1503 ft 118 kts 178°
2026-04-15 15:42 51.75109 7.59355 1490 ft 116 kts 178°
2026-04-15 15:42 51.74321 7.59420 1482 ft 114 kts 179°
2026-04-15 15:42 51.73538 7.59525 1479 ft 113 kts 166°
2026-04-15 15:42 51.73039 7.60480 1478 ft 122 kts 104°
2026-04-15 15:43 51.73041 7.61839 1496 ft 121 kts 94°
2026-04-15 15:43 51.73046 7.63201 1490 ft 122 kts 95°
2026-04-15 15:43 51.73134 7.64566 1485 ft 127 kts 72°
2026-04-15 15:43 51.73817 7.65419 1490 ft 130 kts 11°
2026-04-15 15:44 51.74718 7.65534 1491 ft 129 kts
2026-04-15 15:44 51.75613 7.65648 1491 ft 129 kts
2026-04-15 15:44 51.76485 7.65569 1474 ft 126 kts 334°
2026-04-15 15:44 51.76955 7.64499 1483 ft 118 kts 275°
2026-04-15 15:45 51.77052 7.63176 1494 ft 121 kts 274°
2026-04-15 15:45 51.77158 7.61842 1502 ft 118 kts 273°
2026-04-15 15:45 51.77268 7.60507 1497 ft 121 kts 273°
2026-04-15 15:45 51.77254 7.59186 1472 ft 116 kts 241°
2026-04-15 15:46 51.76625 7.58558 1488 ft 109 kts 185°
2026-04-15 15:46 51.75872 7.58482 1488 ft 106 kts 185°
2026-04-15 15:46 51.75146 7.58441 1486 ft 101 kts 181°
2026-04-15 15:46 51.74465 7.58487 1490 ft 96 kts 179°
2026-04-15 15:47 51.73800 7.58533 1482 ft 96 kts 178°
2026-04-15 15:47 51.73143 7.58601 1493 ft 94 kts 179°
2026-04-15 15:47 51.72495 7.58656 1493 ft 94 kts 178°
2026-04-15 15:47 51.71824 7.58698 1490 ft 100 kts 178°
2026-04-15 15:48 51.71113 7.58753 1501 ft 106 kts 179°
2026-04-15 15:48 51.70360 7.58878 1493 ft 111 kts 173°
2026-04-15 15:48 51.69591 7.59055 1507 ft 112 kts 174°
2026-04-15 15:48 51.68818 7.59230 1491 ft 110 kts 173°
2026-04-15 15:49 51.68052 7.59409 1489 ft 111 kts 172°
2026-04-15 15:49 51.67282 7.59589 1490 ft 111 kts 173°
2026-04-15 15:49 51.66511 7.59763 1490 ft 113 kts 174°
2026-04-15 15:49 51.65739 7.59950 1490 ft 112 kts 173°
2026-04-15 15:50 51.64962 7.60141 1489 ft 113 kts 173°
2026-04-15 15:50 51.64178 7.60321 1486 ft 113 kts 173°
2026-04-15 15:50 51.63405 7.60512 1483 ft 110 kts 173°
2026-04-15 15:50 51.62653 7.60696 1487 ft 109 kts 173°
2026-04-15 15:51 51.61915 7.60871 1486 ft 108 kts 174°
2026-04-15 15:51 51.61171 7.61059 1486 ft 108 kts 173°
2026-04-15 15:51 51.60419 7.61244 1489 ft 110 kts 174°
2026-04-15 15:51 51.59677 7.61425 1491 ft 105 kts 173°
2026-04-15 15:52 51.58977 7.61598 1470 ft 100 kts 173°
2026-04-15 15:52 51.58279 7.61655 1428 ft 99 kts 188°
2026-04-15 15:52 51.57627 7.61398 1461 ft 96 kts 195°
2026-04-15 15:52 51.56975 7.61121 1447 ft 96 kts 195°
2026-04-15 15:53 51.56336 7.60865 1459 ft 94 kts 194°
2026-04-15 15:53 51.55709 7.60583 1514 ft 93 kts 197°
2026-04-15 15:53 51.55095 7.60240 1449 ft 92 kts 201°
2026-04-15 15:53 51.54514 7.59887 1356 ft 88 kts 200°
2026-04-15 15:54 51.53947 7.59588 1384 ft 85 kts 196°
2026-04-15 15:54 51.53391 7.59707 1429 ft 82 kts 155°
2026-04-15 15:54 51.52956 7.60363 1364 ft 95 kts 117°
2026-04-15 15:54 51.53042 7.61451 1145 ft 107 kts 69°
2026-04-15 15:55 51.53383 7.62483 1076 ft 98 kts 75°
2026-04-15 15:55 51.53305 7.63360 1079 ft 74 kts 141°
2026-04-15 15:55 51.52836 7.63523 953 ft 74 kts 199°
2026-04-15 15:55 51.52458 7.63007 777 ft 74 kts 242°
2026-04-15 15:56 51.52216 7.62300 577 ft 71 kts 239°
2026-04-15 15:56 51.51981 7.61642 455 ft 67 kts 238°
2026-04-15 15:56 51.51762 7.61018 417 ft 56 kts 237°
2026-04-15 15:56 51.51628 7.60639 410 ft 18 kts 242°
2026-04-15 15:57 51.51556 7.60619 408 ft 13 kts 155°
2026-04-15 15:57 51.51527 7.60697 410 ft 0 kts 94°
2026-04-15 16:01 51.51534 7.60755 413 ft 12 kts 74°
2026-04-15 16:01 51.51557 7.60890 416 ft 11 kts 73°
2026-04-15 16:02 51.51537 7.61044 429 ft 18 kts 154°
2026-04-15 16:02 51.51470 7.60946 427 ft 21 kts 235°
2026-04-15 16:02 51.51377 7.60677 433 ft 31 kts 240°
2026-04-15 16:02 51.51280 7.60400 441 ft 29 kts 241°
2026-04-15 16:03 51.51190 7.60156 441 ft 13 kts 194°
2026-04-15 16:03 51.51186 7.60280 443 ft 18 kts 53°
2026-04-15 16:03 51.51259 7.60478 444 ft 21 kts 57°
2026-04-15 16:03 51.51296 7.60622 444 ft 12 kts 92°
2026-04-15 16:04 51.51302 7.60734 439 ft 8 kts 12°
2026-04-15 16:04 51.51309 7.60718 432 ft 0 kts 215°